Weather in Samoylovka

Ukraine / Kherson District     47°07′47″N   34°26′47″E
temp.,
°C
wind,
m/s
gust,
m/s
humid.,
%
clouds,
%
prec.,
mm/h
press.,
hPa
HPBL,
m
11 may, tue
tue1100:00+11nw71361100 0.0 1018494
03:00+10nnw71280100 0.8 1016819
06:00+10nnw71284100 0.3 1015659
09:00+11nnw71280100 0.4 1014625
12:00+14n81175100 0.0 10141114
15:00+14ne697781 0.4 1014960
18:00+13ene886421 0.1 1015927
21:00+8nne337131 0.1 101527
12 may, wed
wed1200:00+8nne348185 0.0 101563
03:00+8n2487100 0.1 1014196
06:00+8ene2394100 1.6 1014205
09:00+10ese237016 2.6 1014752
12:00+12sse226193 0.4 10131050
15:00+14nnw225250 0.4 10131475
18:00+14se115516 0.1 10131084
21:00+10e226829 0.1 101313
13 may, thu
thu1300:00+8se34924 0.0 101452
03:00+8ese339419 0.0 101333
06:00+8e34955 0.0 101486
09:00+15ese4567100 0.0 1013528
12:00+20ese455199 0.0 10121302
15:00+23se5647100 0.0 10112021
18:00+21se465647 0.0 1011780
21:00+15se467799 0.0 101171
14 may, fri
fri1400:00+13se359043 0.0 101085
03:00+12s22905 0.0 101020
06:00+12sw228699 0.0 101014
09:00+19wsw115960 0.0 1010387
12:00+24s3339100 0.0 10101024
15:00+26ssw3435100 0.0 10101536
18:00+25wsw2448100 0.0 1009298
21:00+18wsw2263100 0.0 101015
15 may, sat
sat1500:00+15wsw33793 0.0 101035
03:00+13wsw34874 0.0 101153
06:00+12sw368918 0.0 1012127
09:00+18wsw4669100 0.0 1012558
12:00+22wsw6754100 0.0 10131504
15:00+24wsw684542 0.0 10132181
18:00+20ssw51055100 0.0 1013277
21:00+16sw48670 0.0 1014143